Flag for Austria Weather past 2 weeks in Klagenfurt, Carinthia, Austria

Now
46 °F

Rain. Partly cloudy.


Feels Like: 45 °F
Forecast: 46 / 66 °F
Wind: 3 mph from West

Location: Klagenfurt-Flughafen

Current Time: May 23, 2015 at 4:02:58 AM

Latest Report: May 23, 2015 at 3:20 AM


Visibility: N/A

Pressure: 30.01 "Hg

Humidity: 93%

Dew point: 45 °F

Location of KlagenfurtLocation

Historic Weather in Klagenfurt — Graph

°F

Klagenfurt temperature yesterday

Maximum temperature yesterday: 52 °F (at 10:50 AM)
Minimum temperature yesterday: 48 °F (at 2:50 AM)
Average temperature yesterday: 50 °F

Past Weeks' High & Low Weather Summary

 TemperatureHumidityPressure
High82 °F (May 13, 3:50 PM)100% (May 15, 2:50 AM)30.36 "Hg (May 15, 2:50 AM)
Low43 °F (May 21, 8:50 AM)25% (May 8, 2:20 PM)29.71 "Hg (May 19, 4:50 PM)
Average61 °F68%30.04 "Hg
* Reported May 8 2:20 AM — May 23 2:50 AM, Klagenfurt, Weather by CustomWeather, © 2015

Note: Actual official high and low records may vary slightly from our data, if they occured in-between our weather recording intervals... More about our weather records

Advertising

Klagenfurt weather history for previous 24 hours

 ConditionsComfort  
Time TempWeatherWind HumidityBarometerVisibility
2:50 AM
Sat, May 23
46 °FLight rain. Partly cloudy.8 mph93%30.01 "HgN/A
2:20 AM48 °FRain. Partly cloudy.6 mph94%30.01 "HgN/A
1:50 AM48 °FRain. Partly cloudy.1 mph94%30.01 "HgN/A
1:20 AM48 °FRain. Passing clouds.3 mph94%30.01 "HgN/A
12:50 AM48 °FRain. Passing clouds.2 mph94%30.04 "Hg6 mi
12:20 AM48 °FRain. Passing clouds.2 mph94%30.04 "Hg6 mi
11:50 PM
Fri, May 22
48 °FHeavy rain. Partly cloudy.5 mph100%30.04 "Hg3 mi
10:50 PM48 °FRain. Passing clouds.5 mph94%30.04 "Hg5 mi
10:20 PM48 °FLight rain. Passing clouds.2 mph94%30.04 "Hg5 mi
9:50 PM48 °FLight rain. Partly cloudy.2 mph94%30.04 "HgN/A
9:20 PM50 °FLight rain. Broken clouds.3 mph88%30.04 "HgN/A
8:50 PM50 °FLight rain. Broken clouds.2 mph94%30.04 "HgN/A
8:20 PM50 °FLight rain. Broken clouds.2 mph94%30.04 "HgN/A
7:50 PM50 °FLight rain. Broken clouds.3 mph94%30.04 "HgN/A
7:20 PM50 °FRain. Low clouds.3 mph94%30.07 "Hg5 mi
6:50 PM50 °FRain. More clouds than sun.3 mph94%30.07 "Hg5 mi
6:20 PM50 °FRain. More clouds than sun.6 mph94%30.07 "Hg4 mi
5:50 PM50 °FRain. More clouds than sun.3 mph94%30.07 "Hg4 mi
5:20 PM50 °FRain. More clouds than sun.2 mph94%30.07 "Hg5 mi
4:50 PM50 °FRain. More clouds than sun.3 mph94%30.07 "HgN/A
4:20 PM50 °FRain. Low clouds.3 mph94%30.07 "HgN/A
3:50 PM50 °FRain. Low clouds.5 mph94%30.07 "HgN/A
3:20 PM52 °FLight rain. More clouds than sun.3 mph88%30.07 "HgN/A
2:50 PM50 °FLight rain. More clouds than sun.5 mph94%30.09 "HgN/A
2:20 PM52 °FLight rain. More clouds than sun.5 mph88%30.09 "HgN/A
1:50 PM52 °FLight rain. More clouds than sun.3 mph88%30.09 "HgN/A
1:20 PM52 °FLight rain. More clouds than sun.3 mph88%30.09 "HgN/A
12:50 PM50 °FRain. More clouds than sun.3 mph94%30.12 "Hg5 mi
12:20 PM50 °FRain. Partly sunny.2 mph94%30.12 "Hg5 mi
11:50 AM50 °FRain. Broken clouds.3 mph94%30.12 "Hg5 mi
11:20 AM52 °FLight rain. Broken clouds.5 mph88%30.12 "HgN/A
10:50 AM52 °FLight rain. Broken clouds.3 mph88%30.12 "HgN/A
10:20 AM50 °FLight rain. Broken clouds.5 mph94%30.12 "HgN/A
9:50 AM50 °FLight rain. Broken clouds.3 mph94%30.12 "HgN/A
9:20 AM50 °FLight rain. Broken clouds.2 mph94%30.12 "HgN/A
8:50 AM50 °FLight rain. Broken clouds.1 mph88%30.12 "HgN/A
8:20 AM50 °FLight rain. Broken clouds.1 mph94%30.12 "HgN/A
7:50 AM50 °FLight rain. Partly sunny.1 mph94%30.12 "HgN/A
7:20 AM50 °FLight rain. Partly sunny.1 mph88%30.12 "HgN/A
6:50 AM48 °FPartly sunny.3 mph94%30.12 "HgN/A
6:20 AM48 °FPartly cloudy.3 mph94%30.12 "HgN/A
5:50 AM48 °FOvercast.3 mph94%30.12 "HgN/A
5:20 AM48 °FOvercast.5 mph94%30.12 "HgN/A
4:50 AM48 °FPassing clouds.3 mph94%30.12 "HgN/A
4:20 AM48 °FLow clouds.1 mph94%30.12 "HgN/A
Weather by CustomWeather, © 2015

See weather overviewHow to use our weather pages